Theta_e
319 319 319 318 319 318 319 319 320 320 320 321 321 322 322 322 320 315 308 314 316 330 326 311 308 309 309 307 307 306 304 301 302 302 311 324 322 328 331 326 328 331 331 338 344
318 318 318 318 318 318 318 318 319 319 320 320 321 321 321 321 314 310 322 329 333 332 310 308 306 309 308 306 306 306 303 302 305 307 307 308 323 326 325 324 325 330 336 337 338
317 317 317 318 317 318 318 318 318 319 319 319 320 320 320 320 310 315 335 332 333 328 311 310 311 310 306 306 304 302 301 303 304 307 307 318 323 325 323 320 325 327 328 332 332
316 317 316 317 317 317 317 318 318 318 318 319 319 319 320 317 305 315 341 336 335 316 311 310 310 307 304 303 304 302 304 304 305 306 305 319 325 323 325 325 330 330 330 330 327
315 316 315 316 316 316 317 317 317 317 317 317 318 319 315 307 308 326 340 337 315 311 310 310 309 308 304 304 303 303 304 304 307 306 310 325 323 323 321 327 329 329 326 324 323
315 314 314 315 315 316 316 316 316 315 316 317 318 319 314 302 315 326 324 313 311 310 308 310 311 311 307 305 305 305 310 321 321 321 322 323 323 324 322 327 325 323 319 319 318
315 314 314 314 314 315 316 315 315 315 316 317 319 319 308 307 318 321 314 313 312 311 309 310 312 310 309 305 307 308 316 320 319 322 321 324 318 317 323 325 320 319 318 318 318
314 313 313 313 313 314 315 314 314 316 316 318 320 317 307 314 319 318 315 313 313 312 312 313 313 309 307 308 306 304 305 308 318 319 321 318 312 318 323 323 318 316 316 315 316
313 313 312 312 313 313 314 313 316 317 318 321 315 311 307 319 314 320 317 313 313 312 313 313 311 307 307 304 303 302 300 300 313 317 319 317 314 319 321 321 317 315 314 313 313
312 312 312 312 312 313 312 313 320 320 320 320 317 308 311 311 316 316 317 316 314 310 309 308 307 305 304 303 297 299 299 299 307 313 317 315 315 316 317 318 315 313 313 311 311
311 311 311 312 312 311 310 310 305 309 314 307 308 305 308 313 315 313 316 315 313 308 304 305 303 300 302 304 303 302 300 302 311 316 314 314 312 311 315 316 313 312 311 310 310
310 310 311 311 311 311 308 303 306 307 304 308 311 310 312 313 308 312 315 309 307 303 303 302 300 305 304 303 302 301 306 308 313 315 314 312 308 311 313 314 314 312 310 310 310
310 310 310 311 310 309 304 305 310 310 304 304 304 307 308 312 308 310 311 308 304 302 302 300 302 303 303 301 301 300 305 309 309 312 313 310 306 308 311 314 313 313 312 311 311
309 309 309 308 305 303 304 309 311 310 300 301 304 308 311 312 307 314 311 309 304 302 301 301 303 302 301 301 304 301 304 310 310 309 303 312 301 307 310 312 312 312 311 311 311
309 309 308 307 304 303 306 310 312 309 288 302 305 313 310 309 308 308 310 308 303 302 303 302 302 301 302 303 304 302 313 312 311 306 308 307 303 307 312 311 312 312 312 312 312
309 308 308 305 304 307 309 310 311 299 288 302 307 305 305 307 305 306 307 310 307 303 304 303 307 304 303 302 304 308 302 302 300 300 296 301 304 302 307 311 315 314 312 312 311
308 307 306 306 301 308 309 310 299 291 301 301 302 303 304 303 304 304 303 303 301 298 299 304 303 305 305 303 304 303 302 295 293 293 293 298 301 304 307 311 313 313 313 312 311
306 306 305 306 308 308 308 303 292 296 297 304 304 301 301 303 304 302 301 300 302 303 301 299 295 302 305 303 302 300 302 297 288 291 294 298 296 305 310 311 313 315 315 313 311
305 303 305 308 308 308 306 296 296 298 302 302 303 298 300 302 302 301 301 300 303 306 301 299 297 305 304 304 304 299 299 300 295 293 293 296 300 308 308 309 312 311 312 310 310
301 299 308 311 310 307 302 296 299 302 305 303 298 300 298 300 299 300 300 303 302 305 309 305 298 303 304 306 303 303 301 297 298 289 288 293 295 297 305 309 309 310 310 310 310
300 300 309 311 309 306 296 299 300 304 306 301 301 298 301 298 301 299 300 302 305 303 308 306 304 301 304 303 301 300 299 297 299 297 291 289 295 306 308 311 311 311 311 310 307
300 296 308 312 304 301 299 301 301 304 307 304 306 303 302 303 300 300 301 304 307 307 303 305 306 299 300 304 305 303 301 302 297 294 295 295 295 305 309 310 312 311 311 309 308
298 298 310 309 300 300 302 302 305 304 305 304 303 306 306 304 303 303 303 306 308 307 306 307 303 297 298 302 304 302 300 299 300 299 296 293 296 304 308 310 311 311 309 307 306
301 300 306 306 304 300 299 300 302 308 307 308 306 309 307 303 305 304 303 305 308 309 310 312 302 302 296 300 303 300 300 300 301 298 296 296 298 302 307 309 309 310 308 306 305
300 298 298 297 301 299 299 299 299 300 304 304 304 306 305 303 303 302 303 304 305 310 306 311 302 300 299 301 302 301 301 299 299 301 297 299 298 303 305 309 310 309 306 305 304
295 292 296 298 299 298 298 298 298 299 301 301 303 304 305 305 307 304 305 304 305 305 305 305 301 302 299 301 301 299 301 301 301 300 299 299 299 305 305 308 305 305 305 304 303
296 298 295 296 297 297 297 297 298 300 303 305 303 303 305 304 306 308 308 309 309 307 304 305 303 300 295 299 299 295 299 300 300 302 301 298 304 304 303 306 307 306 306 305 304
Wind_Speed
19 18 18 18 17 16 16 15 14 13 12 12 10 9 10 10 11 3 7 6 6 8 6 2 2 3 2 3 2 2 4 7 5 7 6 7 4 2 3 8 5 7 10 9 10
20 19 19 18 17 17 17 16 15 14 12 11 10 9 9 8 3 7 6 8 8 6 5 6 5 4 3 2 2 2 4 7 4 5 9 3 4 8 6 6 9 15 14 13 13
21 20 20 20 20 17 18 17 16 15 13 11 10 9 8 6 4 1 3 11 9 4 3 3 5 2 3 2 3 4 3 7 6 7 5 7 9 3 11 8 5 14 11 14 15
21 21 21 21 21 20 19 18 17 16 14 11 10 9 7 2 3 2 6 13 10 6 4 5 3 4 4 5 3 3 4 5 3 7 5 9 12 9 12 10 14 14 13 14 15
22 22 22 22 21 20 20 20 17 16 14 10 9 7 3 3 5 2 8 11 8 6 4 4 4 4 5 4 5 3 1 3 2 5 4 12 10 13 17 16 17 16 17 15 14
21 22 22 22 21 21 19 18 18 16 12 9 7 5 2 4 3 3 10 7 6 4 5 4 3 2 4 3 3 4 2 8 6 9 8 15 12 5 9 16 17 18 15 14 14
22 22 23 23 23 22 20 20 17 17 12 7 5 3 2 9 2 5 7 4 5 3 4 3 3 2 4 4 2 7 9 9 5 7 7 16 8 11 13 16 17 16 13 14 12
23 23 24 24 24 23 23 22 20 13 6 6 5 2 6 2 5 5 4 3 3 3 1 2 3 3 1 2 2 4 3 5 7 3 7 4 9 10 10 16 15 14 12 12 12
23 23 25 26 25 25 23 23 12 5 6 7 3 2 6 3 4 4 8 3 5 4 1 4 1 2 2 3 3 2 4 4 9 2 5 3 9 10 9 14 13 12 11 10 11
24 24 24 26 26 24 25 12 2 4 5 3 2 3 5 2 1 4 4 6 2 4 5 3 3 3 3 5 7 5 5 4 7 4 4 7 10 11 8 11 12 12 11 11 10
26 25 26 25 26 23 11 3 3 3 3 7 2 3 2 3 2 3 4 8 2 3 3 2 5 7 10 6 3 7 3 6 4 5 4 8 12 7 8 10 11 10 10 11 10
27 27 28 28 26 22 2 3 3 2 7 12 11 8 5 1 2 2 8 5 3 5 2 3 8 6 4 6 5 6 12 6 8 6 6 10 8 6 6 7 9 11 11 12 11
25 25 27 29 30 3 4 4 3 2 4 5 6 6 5 10 6 6 9 5 3 6 7 6 2 7 7 6 10 7 9 13 6 10 10 14 5 7 5 6 8 8 9 10 11
25 25 25 32 3 6 6 2 7 3 3 4 4 4 7 7 5 5 7 6 4 11 5 6 1 6 8 7 9 6 3 13 17 7 4 8 3 13 12 11 13 13 12 11 12
26 25 23 16 10 4 2 8 5 3 4 1 3 2 2 10 6 5 3 4 10 8 5 3 3 8 8 5 6 5 10 13 9 5 7 9 5 8 11 17 19 16 14 13 12
27 26 24 0 4 10 10 8 2 2 7 1 4 5 9 5 4 4 4 3 2 4 2 3 1 1 3 6 5 18 9 7 3 2 4 4 6 5 9 17 13 16 16 14 13
32 30 17 5 4 1 6 3 3 5 2 3 2 6 10 7 8 4 7 9 6 5 4 1 2 2 3 10 8 2 6 3 4 4 2 2 5 4 2 4 7 18 18 16 15
36 26 2 6 4 6 3 3 7 2 5 3 1 3 12 9 8 6 8 9 3 2 3 4 5 0 2 2 5 3 2 2 3 3 2 3 5 0 1 2 4 10 15 15 14
28 4 2 3 10 3 4 8 6 7 1 4 2 5 8 8 5 6 9 10 10 9 4 5 3 2 3 3 2 5 3 3 6 2 4 1 2 7 2 2 8 9 14 15 15
8 5 3 3 9 3 4 8 5 3 2 1 2 2 10 10 9 9 9 6 8 11 2 6 5 1 4 2 13 1 9 3 1 2 4 3 3 5 4 7 8 13 16 17 15
2 4 7 6 3 1 7 7 7 6 4 0 0 5 3 5 11 6 9 3 5 8 4 6 3 5 2 1 7 5 4 6 4 2 4 6 2 3 4 8 13 15 16 17 16
5 3 3 3 2 2 3 4 2 5 3 2 2 6 8 3 6 11 12 4 2 12 11 4 4 5 2 3 1 2 3 4 3 4 0 2 5 3 4 4 9 10 13 14 15
6 4 2 3 3 2 3 3 3 4 6 4 6 5 3 4 4 5 6 2 5 9 12 10 2 6 3 4 3 3 4 5 6 2 6 6 5 2 4 5 9 12 13 14 15
4 4 3 3 3 4 5 2 4 2 4 4 7 7 8 4 1 6 5 1 3 4 6 7 5 7 12 8 5 6 7 7 4 4 5 9 12 6 8 8 9 12 14 16 15
4 4 3 5 3 7 4 4 4 4 3 3 3 10 8 6 3 3 3 4 3 7 4 3 6 3 4 7 4 6 10 10 9 6 8 12 8 11 6 9 10 11 13 15 16
4 5 6 5 8 7 4 2 3 6 3 1 3 14 6 6 6 9 9 5 5 4 3 1 5 4 4 4 4 3 5 8 9 7 10 9 12 5 1 6 11 14 16 16 16
3 2 3 5 6 4 4 7 4 9 4 6 7 9 5 5 13 6 8 4 4 7 4 2 8 4 4 2 4 3 7 6 3 5 5 8 7 4 5 8 11 14 16 15 15
Wind_Direction
0 357 355 352 350 347 344 341 335 327 320 318 323 324 323 320 307 188 240 219 177 150 183 133 84 82 102 108 104 171 165 207 183 179 139 158 158 91 89 115 67 29 58 97 103
357 354 352 349 347 343 341 340 336 327 320 317 319 320 320 329 291 251 248 164 141 176 151 165 159 142 112 111 96 170 210 197 193 178 155 145 168 134 154 108 79 89 91 81 80
355 351 349 347 344 340 339 336 332 327 320 317 316 317 315 314 274 246 71 184 202 200 120 106 116 142 132 156 152 148 209 173 204 216 157 122 126 96 133 87 77 117 92 82 72
351 349 347 344 341 338 336 331 329 325 318 314 313 312 310 265 122 17 333 167 173 170 127 125 136 128 139 161 157 197 202 188 142 218 181 162 123 89 62 90 101 96 85 80 69
347 347 345 342 337 335 332 326 322 321 314 308 305 307 251 305 256 40 113 134 140 153 150 150 153 145 147 145 155 213 46 151 305 171 133 122 110 102 96 103 95 85 72 63 68
344 343 341 339 336 332 326 319 317 314 307 294 286 287 240 286 83 141 139 145 155 149 148 164 155 180 122 151 206 122 59 100 99 130 138 126 123 107 110 109 93 82 78 74 66
343 340 339 337 334 330 324 319 313 304 293 266 253 231 191 252 70 159 163 188 172 168 151 193 175 199 148 153 148 152 102 111 83 130 116 127 83 96 125 110 96 95 89 82 77
341 339 337 335 333 329 325 319 313 293 252 217 202 230 258 201 129 162 194 167 166 180 175 153 171 92 249 105 94 152 155 145 144 131 144 267 139 130 141 117 107 101 98 92 79
340 337 335 332 331 329 326 322 322 112 140 156 182 254 269 314 240 195 176 180 150 150 206 121 152 72 158 187 180 106 157 130 161 93 149 330 138 148 146 128 117 112 110 98 91
340 337 334 330 328 328 326 315 93 109 123 206 243 259 253 120 264 139 177 166 169 118 134 169 106 160 140 204 197 139 130 122 165 140 73 87 109 127 145 136 128 122 120 111 101
340 337 332 329 326 329 329 251 213 181 216 218 191 256 257 289 297 194 154 142 145 98 188 70 217 220 212 199 119 118 154 133 76 13 100 117 131 133 149 140 137 131 127 120 114
338 337 333 329 325 324 237 300 84 8 294 232 241 256 257 341 291 233 163 150 170 201 153 190 241 226 180 185 177 150 145 112 88 55 96 137 115 130 177 158 159 149 147 141 138
335 335 333 328 321 291 308 249 22 314 255 276 204 218 205 177 206 208 180 138 171 186 209 227 103 133 172 163 165 176 179 169 141 113 81 141 134 179 186 168 163 166 152 154 157
332 333 337 334 292 341 278 27 324 221 285 259 223 240 154 172 198 193 182 156 197 217 185 248 147 207 193 187 183 156 243 142 139 175 136 220 167 201 191 191 195 175 169 172 171
329 328 333 331 303 265 10 335 314 228 291 131 170 98 153 182 137 177 182 119 201 182 194 123 175 179 181 160 186 107 131 127 147 94 149 194 258 119 198 217 204 184 186 184 172
325 323 325 196 222 255 309 310 229 205 247 276 147 155 163 189 143 120 160 99 121 171 230 277 268 187 75 80 89 137 107 88 96 128 228 162 242 179 187 235 203 189 190 183 173
323 317 306 186 235 43 315 175 188 222 339 149 175 172 190 169 187 145 161 180 192 173 201 83 28 94 120 99 117 144 164 159 200 204 311 66 204 303 207 220 224 198 184 177 174
324 317 185 208 241 284 294 169 209 231 256 323 322 159 198 168 193 159 149 181 186 131 131 160 151 25 30 71 154 111 203 217 271 276 27 162 232 136 27 270 215 204 186 172 173
323 328 248 239 211 266 177 205 210 200 237 316 322 182 194 202 187 165 184 192 195 182 198 153 107 68 51 105 288 138 140 53 107 85 243 95 242 249 241 221 204 179 180 178 177
326 315 311 24 164 189 190 223 221 219 298 300 296 341 197 186 183 191 178 176 188 195 191 182 128 114 162 122 55 30 126 156 112 203 279 196 257 276 224 213 188 193 191 183 176
326 332 11 111 212 196 213 231 225 236 248 326 184 329 281 202 195 179 188 180 203 160 163 147 153 155 212 213 153 147 147 71 97 326 277 292 253 200 215 206 205 202 196 181 172
335 316 49 192 250 307 215 208 237 247 203 244 226 268 259 242 197 196 200 214 154 155 175 155 109 142 149 4 320 78 140 151 204 188 184 300 282 181 234 258 221 199 189 175 172
341 294 333 265 266 256 286 263 252 240 247 232 252 242 220 234 206 192 190 125 170 174 160 176 125 128 120 151 151 199 124 105 99 102 193 261 271 170 260 245 212 195 177 169 166
316 330 335 36 22 342 349 353 287 318 265 250 248 254 271 243 252 172 160 117 151 157 67 107 128 187 197 195 138 171 166 169 172 175 209 231 272 241 228 220 193 186 175 172 171
6 46 24 338 4 334 311 326 304 315 328 285 243 230 220 199 165 175 159 147 132 157 98 170 137 135 97 126 139 144 172 177 208 226 229 273 239 267 272 225 191 176 171 169 173
7 4 346 296 303 307 336 31 330 331 283 327 342 331 288 209 191 189 174 214 173 150 139 150 122 140 113 118 130 181 200 213 234 240 248 259 260 271 65 142 165 177 176 178 177
13 314 295 304 332 315 28 341 330 340 268 282 342 322 304 353 310 312 112 34 148 149 123 57 137 127 129 118 123 252 239 212 229 225 260 245 295 169 181 195 191 182 186 183 178